sat.trackr.live / text

‹ back to catalog

STARLINK-2704

NORAD 48643 · 2021-044F

PAYLOAD ACTIVE UNKNOWN

§ Identity

Operator
Country
US
Launch date
2021-05-26
Launch site
AFETR
Launch vehicle
Mass (kg)
RCS (m²)

Purposes: comms

External: N2YO · Heavens-Above · Gunter

§ Orbital elements

Epoch: 2026-09-19T19:24:31.508064Z

Period
94.01 min
Inclination
53.1587°
Eccentricity
0.0001215
Mean motion
15.31693279 rev/d
Perigee alt
469.9 km
Apogee alt
471.6 km
Semi-major
6,848.9 km
B*
8.8099e-6
RAAN
290.4741°
Arg perigee
93.6391°
Mean anomaly
266.4749°
Rev number
29,357

§ Raw data

STARLINK-27041 48643U 21044F   26262.80869801 -.00000092  00000+0  88099-5 0  99942 48643  53.1587 290.4741 0001215  93.6391 266.4749 15.31693279293573

JSON: /api/v1/satellites/48643 · /tle

For live sub-satellite position, see the globe view (requires WebGL).

§ Visibility from observer

Set your observer location to see the next 7 days of passes ≥ 10°. The values pass through the URL so the page stays shareable.

No JS? Fill the form by hand. The geolocation button needs JavaScript.